Tracking 29892 objects as of 21-Nov-2024
HD Live streaming from Space Station
objects crossing your sky now

FLOCK 4Y 21

Track FLOCK 4Y 21 now!
10-day predictions
FLOCK 4Y 21 is classified as:


NORAD ID: 55077
Int'l Code: 2023-001BW
Perigee: 448.3 km
Apogee: 461.0 km
Inclination: 97.4 °
Period: 93.5 minutes
Semi major axis: 6825 km
RCS: Unknown
Launch date: January 3, 2023
Source: United States (US)
Launch site: AIR FORCE EASTERN TEST RANGE (AFETR)
Your satellite tracking list
Your tracking list is empty




NASA's NSSDC Master Catalog

Two Line Element Set (TLE):
1 55077U 23001BW  24325.54217511  .00043237  00000-0  10970-2 0  9990
2 55077  97.4039  28.2676 0009306 337.7785  22.3056 15.39510982104744
Source of the keplerian elements: AFSPC